Hutchinson, MN

2:48 AM CDT on May 29, 2017 (GMT -0500)
Hutchinson Municipal-Butler

Weather History for KHCD - November, 2013

Change the Weather History Date:

Thursday, November 28, 2013

  Actual Average Record
Temperature  
Mean Temperature 16 °F -  
Max Temperature 27 °F 30 °F 53 °F (1998)
Min Temperature 5 °F 13 °F -15 °F (1985)
Degree Days  
Heating Degree Days 49    
Moisture  
Dew Point 11 °F    
Average Humidity 69    
Maximum Humidity 88    
Minimum Humidity 53    
Precipitation  
Precipitation 0.00 in - - ()
Sea Level Pressure  
Sea Level Pressure 30.30 in    
Wind  
Wind Speed 6 mph (NW)    
Max Wind Speed 18 mph    
Max Gust Speed 22 mph    
Visibility 10 miles    
Events      
Averages and records for this station are not official NWS values.
T = Trace of Precipitation, MM = Missing Value Source: NWS Daily Summary

Daily Weather History Graph

Daily Weather History Graph

Search for Another Location

Airport or City:

Trip Planner

Search our weather history database for the weather conditions in past years. The results will help you decide how hot, cold, wet, or windy it might be!

Date:

Astronomy

Nov. 28, 2013 Rise Set
Actual Time 7:31 AM CST 4:39 PM CST
Civil Twilight 6:59 AM CST 5:11 PM CST
Nautical Twilight 6:22 AM CST 5:48 PM CST
Astronomical Twilight 5:47 AM CST 6:23 PM CST
Moon 2:23 AM CST (11/28) 1:59 PM CST (11/28)
Length of Visible Light 10h 12m
Length of Day
9h 07m
Waning Crescent, 22% of the Moon is Illuminated
Nov 28
Waning Crescent
Dec 2
New
Dec 9
First Quarter
Dec 17
Full
Dec 25
Last Quarter

Hourly Weather History & Observations

Time (CST) Temp. Windchill Dew Point Humidity Pressure Visibility Wind Dir Wind Speed Gust Speed Precip Events Conditions
12:13 AM 22.1 °F 14.7 °F 12.2 °F 66% 30.04 in 10.0 mi SE 5.8 mph - N/A   Overcast
12:34 AM 22.1 °F 15.9 °F 12.2 °F 66% 30.04 in 10.0 mi SE 4.6 mph - N/A   Overcast
12:53 AM 22.1 °F 17.4 °F 12.7 °F 67% 30.04 in 10.0 mi SSE 3.5 mph - N/A   Overcast
1:13 AM 22.1 °F - 12.7 °F 67% 30.04 in 10.0 mi Calm Calm - N/A   Overcast
1:29 AM 21.9 °F - 12.7 °F 68% 30.05 in 10.0 mi Calm Calm - N/A   Overcast
1:54 AM 21.9 °F - 12.7 °F 68% 30.06 in 10.0 mi Calm Calm - N/A   Overcast
2:13 AM 21.9 °F - 12.9 °F 68% 30.07 in 10.0 mi Calm Calm - N/A   Overcast
2:33 AM 21.6 °F - 12.9 °F 69% 30.08 in 10.0 mi Calm Calm - N/A   Overcast
2:53 AM 21.4 °F - 13.1 °F 70% 30.08 in 10.0 mi Calm Calm - N/A   Overcast
3:13 AM 21.4 °F 16.6 °F 13.3 °F 71% 30.09 in 10.0 mi WNW 3.5 mph - N/A   Overcast
3:33 AM 21.7 °F 15.5 °F 13.1 °F 69% 30.11 in 10.0 mi WNW 4.6 mph - N/A   Overcast
3:54 AM 21.9 °F 13.4 °F 13.1 °F 69% 30.12 in 10.0 mi WNW 6.9 mph - N/A   Overcast
4:13 AM 21.9 °F 13.4 °F 13.5 °F 70% 30.12 in 10.0 mi WNW 6.9 mph - N/A   Overcast
4:34 AM 21.9 °F 12.5 °F 13.5 °F 70% 30.12 in 10.0 mi NW 8.1 mph - N/A   Overcast
4:53 AM 22.1 °F 11.3 °F 13.5 °F 69% 30.14 in 10.0 mi NW 10.4 mph - N/A   Overcast
5:13 AM 22.3 °F 10.8 °F 13.6 °F 69% 30.15 in 10.0 mi NW 11.5 mph - N/A   Overcast
5:34 AM 22.8 °F 10.9 °F 13.3 °F 67% 30.16 in 10.0 mi NW 12.7 mph - N/A   Overcast
5:54 AM 23.4 °F 10.1 °F 13.8 °F 67% 30.16 in 10.0 mi NNW 16.1 mph - N/A   Overcast
6:14 AM 23.7 °F 12.6 °F 13.8 °F 66% 30.17 in 10.0 mi NNW 11.5 mph - N/A   Overcast
6:34 AM 23.0 °F 12.4 °F 13.5 °F 67% 30.19 in 10.0 mi NW 10.4 mph - N/A   Overcast
6:53 AM 22.1 °F 11.3 °F 13.6 °F 70% 30.20 in 10.0 mi NW 10.4 mph - N/A   Mostly Cloudy
7:13 AM 22.1 °F 12.8 °F 14.0 °F 71% 30.21 in 10.0 mi NW 8.1 mph - N/A   Mostly Cloudy
7:34 AM 22.3 °F 13.0 °F 14.4 °F 72% 30.22 in 10.0 mi NW 8.1 mph - N/A   Overcast
7:53 AM 22.1 °F 13.7 °F 14.2 °F 72% 30.22 in 10.0 mi WNW 6.9 mph - N/A   Overcast
8:14 AM 21.9 °F 13.4 °F 13.6 °F 70% 30.24 in 10.0 mi WNW 6.9 mph - N/A   Scattered Clouds
8:33 AM 22.6 °F 13.4 °F 14.0 °F 69% 30.25 in 10.0 mi WNW 8.1 mph - N/A   Scattered Clouds
8:54 AM 23.7 °F 13.3 °F 14.2 °F 67% 30.26 in 10.0 mi WNW 10.4 mph - N/A   Overcast
9:13 AM 24.1 °F 12.0 °F 14.9 °F 68% 30.27 in 10.0 mi NW 13.8 mph 17.3 mph N/A   Mostly Cloudy
9:33 AM 25.3 °F 13.6 °F 15.4 °F 66% 30.28 in 10.0 mi NW 13.8 mph - N/A   Scattered Clouds
9:53 AM 25.7 °F 13.1 °F 15.4 °F 65% 30.29 in 10.0 mi NNW 16.1 mph 21.9 mph N/A   Scattered Clouds
10:13 AM 25.3 °F 13.6 °F 15.4 °F 66% 30.30 in 10.0 mi NW 13.8 mph 20.7 mph N/A   Mostly Cloudy
10:33 AM 25.2 °F 12.9 °F 15.4 °F 67% 30.30 in 10.0 mi WNW 15.0 mph 20.7 mph N/A   Overcast
10:53 AM 25.3 °F 12.6 °F 14.9 °F 65% 30.31 in 10.0 mi NNW 16.1 mph - N/A   Mostly Cloudy
11:13 AM 26.2 °F 15.2 °F 14.0 °F 60% 30.31 in 10.0 mi NW 12.7 mph 21.9 mph N/A   Scattered Clouds
11:33 AM 25.9 °F 12.5 °F 12.9 °F 58% 30.31 in 10.0 mi NW 18.4 mph 21.9 mph N/A   Scattered Clouds
11:54 AM 26.2 °F 15.2 °F 12.9 °F 57% 30.32 in 10.0 mi NW 12.7 mph 17.3 mph N/A   Scattered Clouds
12:13 PM 26.4 °F 15.5 °F 12.0 °F 55% 30.32 in 10.0 mi WNW 12.7 mph 20.7 mph N/A   Clear
12:34 PM 27.3 °F 14.8 °F 12.2 °F 53% 30.32 in 10.0 mi NNW 17.3 mph - N/A   Clear
12:53 PM 26.2 °F 14.2 °F 12.0 °F 55% 30.32 in 10.0 mi NNW 15.0 mph 21.9 mph N/A   Clear
1:13 PM 26.6 °F 14.7 °F 11.5 °F 53% 30.33 in 10.0 mi NNW 15.0 mph 19.6 mph N/A   Clear
1:34 PM 25.2 °F 12.9 °F 12.0 °F 58% 30.34 in 10.0 mi NW 15.0 mph 20.7 mph N/A   Clear
1:53 PM 26.1 °F 15.0 °F 12.2 °F 56% 30.34 in 10.0 mi NW 12.7 mph 18.4 mph N/A   Clear
2:13 PM 25.9 °F 16.0 °F 11.3 °F 54% 30.34 in 10.0 mi NW 10.4 mph - N/A   Scattered Clouds
2:33 PM 26.1 °F 16.8 °F 11.1 °F 53% 30.35 in 10.0 mi NW 9.2 mph - N/A   Clear
2:54 PM 26.2 °F 15.2 °F 11.3 °F 53% 30.36 in 10.0 mi NW 12.7 mph - N/A   Clear
3:14 PM 26.2 °F 17.1 °F 11.3 °F 53% 30.37 in 10.0 mi NW 9.2 mph - N/A   Clear
3:33 PM 25.9 °F 16.0 °F 11.3 °F 54% 30.38 in 10.0 mi NW 10.4 mph - N/A   Clear
3:53 PM 25.3 °F 15.3 °F 11.3 °F 55% 30.39 in 10.0 mi NNW 10.4 mph - N/A   Clear
4:13 PM 24.1 °F 15.2 °F 10.9 °F 57% 30.39 in 10.0 mi NW 8.1 mph - N/A   Clear
4:33 PM 22.6 °F 14.3 °F 10.8 °F 60% 30.40 in 10.0 mi NNW 6.9 mph - N/A   Clear
4:53 PM 20.7 °F 11.9 °F 10.0 °F 64% 30.41 in 10.0 mi NNW 6.9 mph - N/A   Clear
5:13 PM 18.3 °F 11.5 °F 9.3 °F 68% 30.43 in 10.0 mi NNW 4.6 mph - N/A   Clear
5:33 PM 18.0 °F 11.1 °F 8.8 °F 67% 30.43 in 10.0 mi NW 4.6 mph - N/A   Clear
5:53 PM 16.0 °F 10.4 °F 8.2 °F 72% 30.44 in 10.0 mi NNW 3.5 mph - N/A   Clear
6:13 PM 16.0 °F 10.4 °F 8.6 °F 73% 30.44 in 10.0 mi North 3.5 mph - N/A   Clear
6:33 PM 15.4 °F - 8.4 °F 74% 30.44 in 10.0 mi Calm Calm - N/A   Clear
6:53 PM 13.5 °F - 7.3 °F 77% 30.45 in 10.0 mi Calm Calm - N/A   Clear
7:14 PM 12.9 °F - 7.2 °F 78% 30.45 in 10.0 mi Calm Calm - N/A   Clear
7:33 PM 11.1 °F - 4.8 °F 76% 30.45 in 10.0 mi Calm Calm - N/A   Clear
7:54 PM 10.9 °F - 5.4 °F 78% 30.45 in 10.0 mi Calm Calm - N/A   Clear
8:13 PM 12.4 °F - 7.3 °F 80% 30.45 in 10.0 mi Calm Calm - N/A   Clear
8:33 PM 10.2 °F - 6.1 °F 83% 30.46 in 10.0 mi Calm Calm - N/A   Clear
8:53 PM 7.7 °F - 3.9 °F 85% 30.46 in 10.0 mi Calm Calm - N/A   Clear
9:13 PM 9.0 °F - 4.6 °F 83% 30.47 in 10.0 mi Calm Calm - N/A   Clear
9:33 PM 9.9 °F - 5.2 °F 81% 30.47 in 10.0 mi Calm Calm - N/A   Clear
9:53 PM 8.6 °F - 4.8 °F 85% 30.47 in 10.0 mi Calm Calm - N/A   Clear
10:13 PM 8.1 °F - 5.0 °F 87% 30.48 in 10.0 mi Calm Calm - N/A   Clear
10:33 PM 7.7 °F - 4.3 °F 86% 30.48 in 10.0 mi Calm Calm - N/A   Clear
10:54 PM 7.5 °F - 4.1 °F 86% 30.48 in 10.0 mi Calm Calm - N/A   Clear
11:13 PM 5.9 °F - 3.0 °F 88% 30.49 in 10.0 mi Calm Calm - N/A   Clear
11:33 PM 7.3 °F - 3.2 °F 83% 30.49 in 10.0 mi Calm Calm - N/A   Clear
11:54 PM 5.9 °F - 2.5 °F 86% 30.49 in 10.0 mi Calm Calm - N/A   Clear